Notices

What's New in latest Release from April 7th, 2021:

- Updated Glossary, including Speed of Maximum Gust, and Total Hourly Precipitation

- Updated national and regional climate services offices contacts and prices information

- Addition of station inventory lists for 1981-2010, 1971-2000, and 1961-1990 Normals.

If you haven't already, please take our survey and provide feedback about our website: https://eccc.sondage-survey.ca/f/LanguageSelection.aspx?s=442ca660-fcf1-47c0-95a9-59707d6fd709

Hourly Data Report for November 07, 2018

CARBERRY CS
MANITOBA
Current Station Operator: ECCC - MSC

49°54'20.900" N
99°21'26.800" W
383.50 m
5010547
71170
WZE

Download Data

Hourly Data (November 2018)
Hourly Data Report for November 7, 2018
TIME
LST
Temp Definition
°C
Dew Point Definition
°C
Rel Hum Definition
%
Precip. Amount Definition
mm

Wind Dir Definition
10's deg

Wind Spd Definition
km/h
Visibility Definition
km
Stn Press Definition
kPa
Hmdx Definition


Wind Chill Definition


Weather Definition


00:00 -8.2 -11.0 80 0.0 30 18   97.48   -15 LegendNANA
01:00 -8.6 -11.1 83 0.0 29 16   97.56   -15 LegendNANA
02:00 -9.9 -13.1 78 0.0 30 18   97.62   -17 LegendNANA
03:00 -10.3 -13.5 77 0.0 30 23   97.64   -19 LegendNANA
04:00 -9.4 -12.7 77 0.0 30 27   97.67   -18 LegendNANA
05:00 -9.1 -12.5 76 0.0 29 22   97.74   -17 LegendNANA
06:00 -9.4 -12.9 76 0.0 30 22   97.80   -17 LegendNANA
07:00 -9.7 -13.3 75 0.0 30 18   97.82   -17 LegendNANA
08:00 -9.9 -13.8 73 0.0 29 17   97.88   -17 LegendNANA
09:00 -9.7 -13.7 73 0.0 29 16   97.90   -17 LegendNANA
10:00 -9.7 -14.2 69 0.0 29 14   97.90   -16 LegendNANA
11:00
12:00
13:00
14:00
15:00 -7.9 -13.0 67 0.0 31 11   97.83   -13 LegendNANA
16:00 -8.2 -12.5 71 0.0 29 18   97.88   -15 LegendNANA
17:00 -8.3 -12.5 72 0.0 29 11   97.93   -14 LegendNANA
18:00 -8.3 -12.8 70 0.0 29 18   97.94   -15 LegendNANA
19:00 -8.5 -12.5 73 0.0 28 15   97.92   -15 LegendNANA
20:00 -8.4 -13.6 66 0.0 29 19   97.94   -16 LegendNANA
21:00 -8.4 -13.1 69 0.0 28 19   97.97   -16 LegendNANA
22:00 -8.6 -12.8 72 0.0 28 14   97.96   -15 LegendNANA
23:00 -8.6 -13.0 71 0.0 27 16   97.95   -15 LegendNANA

Notes on Data Quality.

Legend

  • E = Estimated
  • M = Missing
  • NA = Not Available*
  • [empty] = Indicates an unobserved value
Date modified: